Regional Weather Roundup
Issued by NWS

Home | Current Version | Previous Version | Graphics & Text | Print | Product List | Glossary On
Versions: 1 2 3 4 5 6 7 8 9 10 11 12 13 14 15 16 17 18 19 20 21 22 23 24 25 26 27 28 29 30 31 32 33 34 35 36 37 38 39 40 41 42 43 44 45 46 47 48 49 50
585
ASUS43 KIND 270009
RWRIN

WEATHER ROUNDUP FOR INDIANA
NATIONAL WEATHER SERVICE INDIANAPOLIS IN
800 PM EDT SUN MAR 26 2017

NOTE: "FAIR" INDICATES FEW OR NO CLOUDS BELOW 12,000 FEET WITH NO
SIGNIFICANT WEATHER AND/OR OBSTRUCTIONS TO VISIBILITY.

* - STATION DOES NOT REPORT WEATHER SUCH AS PRECIPITATION OR FOG.

+ - STATION NOT QUALITY CONTROLLED BY THE NATIONAL WEATHER SERVICE.
    USE DATA WITH CAUTION...ESPECIALLY DEWPOINT AND RELATIVE
    HUMIDITY OBSERVATIONS.

INZ001>003-010>013-019-020-270100-
NORTHWEST INDIANA

CITY           SKY/WX    TMP DP  RH WIND       PRES   REMARKS
GARY /AIRPORT/ CLOUDY    59  50  72 W14       29.85R
KNOX *+        MOCLDY    57  36  44 W10       29.85R
LA PORTE +     CLOUDY    56  51  83 W8        29.86R
6HR MIN TEMP:  54; 6HR MAX TEMP:  61; 6HR PCP:  0.12;

MICHIGAN CITY+ CLOUDY    55  50  82 CALM      29.85R
MONTICELLO +   MOCLDY    57  52  83 SW8       29.87R
6HR MIN TEMP:  57; 6HR MAX TEMP:  61; 6HR PCP:  0.01;

RENSSELAER +   CLOUDY    55  52  88 SW15      29.87R
VALPARAISO     CLOUDY    58  52  80 W13       29.86R
6HR MIN TEMP:  57; 6HR MAX TEMP:  62; 6HR PCP:  0.19;


$$

LMZ046-743>745-270100-
SOUTHERN LAKE MICHIGAN

STATION/POSITION TIME  TEMP    WIND        PRES    WAVE
                       AIR SEA DIR/SP/G            HT
                 (UTC) (F)     (DEG/KT/KT) (MB)    (FT)
BURNS HARBOR     2340   56     230/ 10/ 16 1011.2R
MICHIGAN CITY    2340   52     220/  6/  6   N/A

$$

INZ004-005-014>016-021>024-270100-
NORTH CENTRAL INDIANA

CITY           SKY/WX    TMP DP  RH WIND       PRES   REMARKS
GOSHEN         MOCLDY    58  51  78 SW5       29.85R
6HR MIN TEMP:  55; 6HR MAX TEMP:  62; 6HR PCP:  0.01;

LOGANSPORT +   CLOUDY    54  52  94 W10       29.88R
PERU/GRISSOM   MOCLDY    58  54  87 W15       29.86R
6HR MIN TEMP:  57; 6HR MAX TEMP:  64; 6HR PCP:  0.15;

ROCHESTER +    LGT RAIN  57  54  88 SW8       29.87R
SOUTH BEND     MOCLDY    54  54 100 S5        29.86R
6HR MIN TEMP:  54; 6HR MAX TEMP:  58; 6HR PCP:  0.47;

WARSAW +       LGT RAIN  57  52  82 SW5       29.86R

$$

INZ006>009-017-018-025>027-270100-
NORTHEAST INDIANA

CITY           SKY/WX    TMP DP  RH WIND       PRES   REMARKS
ANGOLA *+      MOCLDY    54  54 100 SE5       29.86R
AUBURN +       CLOUDY    54  52  94 CALM      29.88R
FORT WAYNE     CLOUDY    54  51  90 S8        29.88R
6HR MIN TEMP:  54; 6HR MAX TEMP:  64; 6HR PCP:  0.19;

HUNTINGTON +   CLOUDY    54  53  95 SE5       29.87R
6HR MIN TEMP:  54; 6HR MAX TEMP:  62; 6HR PCP:  0.14;

KENDALLVILLE + RAIN      52  51  97 SE8       29.87R

$$

INZ028-029-035-036-043>045-051>053-270100-
WEST CENTRAL INDIANA

CITY           SKY/WX    TMP DP  RH WIND       PRES   REMARKS
CRAWFORDSVL +  CLOUDY    55  50  84 SW13      29.90R
6HR MIN TEMP:  55; 6HR MAX TEMP:  61; 6HR PCP:  0.10;

GREENCASTLE +  CLOUDY    55  46  71 SW6       29.92R
LAFAYETTE      CLOUDY    57  50  77 SW8       29.88R
6HR MIN TEMP:  57; 6HR MAX TEMP:  63;

TERRE HAUTE    CLOUDY    58  48  69 SW14      29.93R
6HR MIN TEMP:  57; 6HR MAX TEMP:  62; 6HR PCP:  0.01;


$$

INZ030>032-037>040-046>048-054>057-064-065-270100-
CENTRAL INDIANA

CITY           SKY/WX    TMP DP  RH WIND       PRES   REMARKS
CP ATTERBURY + CLOUDY    59  50  72 W14       29.91R
FRANKFORT +    PTCLDY    58  53  83 W12       29.90R
6HR MIN TEMP:  58; 6HR MAX TEMP:  66; 6HR PCP:  0.10;

GREENWOOD *+   MOCLDY    60  51  72 W13G22    29.91R
6HR MIN TEMP:  57; 6HR MAX TEMP:  64;

INDIANAPOLIS   CLOUDY    57  49  74 W15       29.90R
6HR MIN TEMP:  57; 6HR MAX TEMP:  61; 6HR PCP:  0.05;

-EAGLE CREEK   MOCLDY    59  48  67 VRB7      29.89R
6HR MIN TEMP:  59; 6HR MAX TEMP:  65; 6HR PCP:  0.03;

KOKOMO +       RAIN      58  53  84 SW13      29.89R
6HR MIN TEMP:  55; 6HR MAX TEMP:  63; 6HR PCP:  0.17;

MARION +       CLOUDY    56  54  91 SW14      29.89R
MT COMFORT *+  CLOUDY    57  52  82 SW10      29.90R
SHELBYVILLE    CLOUDY    60  52  74 SW10      29.90R
6HR MIN TEMP:  57; 6HR MAX TEMP:  66; 6HR PCP:  0.32;

ZIONSVILLE +   CLOUDY    56  50  80 SW12      29.90R
6HR MIN TEMP:  56; 6HR MAX TEMP:  62;


$$

INZ033-034-041-042-049-050-058-059-270100-
EAST CENTRAL INDIANA

CITY           SKY/WX    TMP DP  RH WIND       PRES   REMARKS
MUNCIE         LGT RAIN  58  54  86 S5        29.89R
6HR MIN TEMP:  57; 6HR MAX TEMP:  64; 6HR PCP:  0.12;

RICHMOND +     CLOUDY    55  52  88 S6        29.91F

$$

INZ060-061-067>069-081>083-085>088-270100-
SOUTHWEST INDIANA

CITY           SKY/WX    TMP DP  RH WIND       PRES   REMARKS
EVANSVILLE     CLEAR     62  46  55 W8        29.96R
6HR MIN TEMP:  62; 6HR MAX TEMP:  66;

HUNTINGBURG *+ CLEAR     59  49  69 W9        29.96R
6HR MIN TEMP:  57; 6HR MAX TEMP:  65; 6HR PCP:  0.13;

WASHINGTON +   MOCLDY    58  46  64 MISG      29.95R
6HR MIN TEMP:  58; 6HR MAX TEMP:  62;


$$

INZ062-063-066-070>080-084-089>092-270100-
SOUTH CENTRAL AND SOUTHEAST INDIANA

CITY           SKY/WX    TMP DP  RH WIND       PRES   REMARKS
BLOOMINGTON    MOCLDY    59  47  64 W10       29.93R
6HR MIN TEMP:  58; 6HR MAX TEMP:  61; 6HR PCP:  0.07;

MADISON *+     CLOUDY    59  55  88 SW5       29.95R
NORTH VERNON + MOCLDY   N/A N/A N/A S7        29.92R
SEYMOUR +      PTCLDY    59  55  88 S5        29.92R

$$





USA.gov is the U.S. government's official web portal to all federal, state and local government web resources and services.